Home   Weather   Hollywood   Past weeks

Flag for USA Past Weather in Hollywood, Florida, USA — Yesterday and Last 2 Weeks

Now
78 °F

Thundershowers. Partly cloudy.


Feels Like: 81 °F
Forecast: 77 / 86 °F
Wind: No wind

Location: Fort Lauderdale / Hollywood International Airport

Current Time: Sep 25, 2016 at 3:10:44 AM

Latest Report: Sep 25, 2016 at 2:02 AM


Visibility: 10 mi

Pressure: 29.98 "Hg

Humidity: 90%

Dew Point: 75 °F

Location of HollywoodLocation

Past Weather in Hollywood — Graph

°F

Hollywood Temperature Yesterday

Maximum temperature yesterday: 87 °F (at 9:53 AM)
Minimum temperature yesterday: 78 °F (at 4:53 AM)
Average temperature yesterday: 81 °F

High & Low Weather Summary for the Past Weeks

 TemperatureHumidityPressure
High91 °F (Sep 18, 1:53 PM)91% (Sep 24, 5:53 PM)30.08 "Hg (Sep 24, 5:53 PM)
Low77 °F (Sep 13, 11:03 AM)47% (Sep 18, 2:53 PM)29.90 "Hg (Sep 12, 6:53 PM)
Average83 °F76%29.99 "Hg
* Reported Sep 10 2:53 AM — Sep 25 2:02 AM, Hollywood, Weather by CustomWeather, © 2016

Note: Actual official high and low records may vary slightly from our data, if they occured in-between our weather recording intervals... More about our weather records

Advertising

Hollywood Weather History for the Previous 24 Hours

Scroll right to see more
 ConditionsComfort  
Time TempWeatherWind HumidityBarometerVisibility
2:02 AM
Sun, Sep 25
78 °FThundershowers. Partly cloudy.No wind90%29.98 "Hg10 mi
1:53 AM78 °FPartly cloudy.3 mph90%29.98 "Hg10 mi
12:53 AM79 °FPartly cloudy.No wind88%30.00 "Hg10 mi
11:53 PM
Sat, Sep 24
79 °FPartly cloudy.3 mph88%30.00 "Hg10 mi
10:53 PM79 °FThunderstorms. Partly cloudy.No wind90%30.01 "Hg10 mi
10:03 PM79 °FThundershowers. Partly cloudy.3 mph90%30.01 "Hg10 mi
9:53 PM79 °FPartly cloudy.No wind90%30.01 "Hg10 mi
8:53 PM80 °FClear.6 mph87%30.01 "Hg10 mi
7:53 PM81 °FPartly cloudy.No wind88%29.98 "Hg10 mi
6:53 PM80 °FBroken clouds.7 mph87%29.98 "Hg10 mi
5:53 PM82 °FLight rain. Partly sunny.No wind91%29.98 "Hg9 mi
4:53 PM84 °FLight rain. Cloudy.6 mph74%29.98 "Hg10 mi
3:53 PM85 °FBroken clouds.8 mph72%29.98 "Hg10 mi
2:53 PM83 °FBroken clouds.No wind79%29.98 "Hg10 mi
1:53 PM82 °FBroken clouds.No wind79%30.01 "Hg10 mi
12:53 PM83 °FThunderstorms. Partly sunny.3 mph74%30.03 "Hg9 mi
11:53 AM85 °FThunderstorms. Broken clouds.7 mph72%30.04 "Hg9 mi
10:53 AM87 °FBroken clouds.5 mph69%30.03 "Hg10 mi
9:53 AM87 °FBroken clouds.3 mph69%30.03 "Hg10 mi
8:53 AM85 °FBroken clouds.3 mph77%30.02 "Hg10 mi
7:53 AM79 °FBroken clouds.3 mph90%30.01 "Hg10 mi
6:53 AM79 °FPassing clouds.No wind90%30.00 "Hg10 mi
5:53 AM78 °FPassing clouds.No wind90%29.98 "Hg10 mi
4:53 AM78 °FPassing clouds.3 mph90%29.98 "Hg10 mi
3:53 AM79 °FPassing clouds.5 mph88%29.97 "Hg10 mi
Weather by CustomWeather, © 2016

See weather overviewHow to use our weather pages